Home > Weather > Aix-en-Provence > Past weeks

Flag for France Past Weather in Aix-en-Provence, Provence-Alpes-Côte d'Azur, France — Yesterday and Last 2 Weeks

Now
81 °F

Sunny.


Feels Like: 81 °F
Forecast: 61 / 90 °F
Wind: 3 mph from Northwest

Location: Marseille / Marignane

Current Time: Aug 26, 2016 at 10:47:35 AM

Latest Report: Aug 26, 2016 at 10:00 AM


Visibility: 10 mi

Pressure: 30.07 "Hg

Humidity: 48%

Dew Point: 59 °F

Location of Aix-en-ProvenceLocation

Past Weather in Aix-en-Provence — Graph

°F

Aix-en-Provence Temperature Yesterday

Maximum temperature yesterday: 90 °F (at 12:30 PM)
Minimum temperature yesterday: 66 °F (at 5:30 AM)
Average temperature yesterday: 78 °F

High & Low Weather Summary for the Past Weeks

 TemperatureHumidityPressure
High90 °F (Aug 18, 3:00 PM)89% (Aug 16, 11:00 PM)30.24 "Hg (Aug 16, 11:00 PM)
Low59 °F (Aug 12, 5:00 AM)25% (Aug 14, 3:30 PM)29.80 "Hg (Aug 18, 5:30 AM)
Average76 °F53%30.06 "Hg
* Reported Aug 11 9:00 AM — Aug 26 9:30 AM, Aix-en-Provence, Weather by CustomWeather, © 2016

Note: Actual official high and low records may vary slightly from our data, if they occured in-between our weather recording intervals... More about our weather records

Advertising

Aix-en-Provence Weather History for the Previous 24 Hours

Scroll right to see more
 ConditionsComfort  
Time TempWeatherWind HumidityBarometerVisibility
9:30 AM
Fri, Aug 26
79 °FSunny.5 mph51%30.07 "Hg10 mi
9:00 AM79 °FSunny.2 mph48%30.04 "Hg10 mi
8:30 AM75 °FSunny.2 mph50%30.04 "Hg10 mi
8:00 AM73 °FSunny.1 mph53%30.04 "Hg10 mi
7:30 AM70 °FClear.1 mph57%30.04 "Hg10 mi
7:00 AM70 °FPassing clouds.3 mph60%30.04 "HgN/A
6:30 AM68 °FClear.5 mph60%30.04 "Hg10 mi
6:00 AM70 °FClear.2 mph60%30.04 "Hg10 mi
5:30 AM68 °FClear.3 mph60%30.04 "Hg10 mi
5:00 AM70 °FClear.3 mph60%30.04 "Hg10 mi
4:30 AM72 °FClear.2 mph53%30.04 "Hg10 mi
4:00 AM72 °FClear.No wind57%30.04 "Hg10 mi
3:30 AM73 °FClear.No wind53%30.04 "Hg10 mi
3:00 AM75 °FClear.2 mph50%30.04 "Hg10 mi
2:30 AM73 °FClear.1 mph53%30.04 "Hg10 mi
2:00 AM73 °FPassing clouds.3 mph53%30.04 "HgN/A
1:30 AM75 °FPassing clouds.3 mph50%30.04 "HgN/A
1:00 AM75 °FClear.No wind54%30.04 "Hg10 mi
12:30 AM73 °FClear.3 mph57%30.04 "Hg10 mi
12:00 AM73 °FClear.3 mph57%30.04 "Hg10 mi
11:30 PM
Thu, Aug 25
73 °FClear.3 mph57%30.04 "Hg10 mi
11:00 PM75 °FClear.2 mph50%30.04 "Hg10 mi
10:30 PM77 °FClear.2 mph54%30.04 "Hg10 mi
10:00 PM77 °FClear.No wind57%30.04 "Hg10 mi
9:30 PM79 °FClear.No wind54%30.04 "Hg10 mi
9:00 PM79 °FSunny.2 mph58%30.04 "Hg10 mi
8:30 PM79 °FPassing clouds.5 mph54%30.04 "HgN/A
8:00 PM82 °FSunny.5 mph48%30.04 "Hg10 mi
7:30 PM84 °FPassing clouds.5 mph35%30.04 "HgN/A
7:00 PM84 °FSunny.8 mph37%30.04 "Hg10 mi
6:30 PM86 °FSunny.8 mph35%30.04 "Hg10 mi
6:00 PM86 °FSunny.9 mph35%30.04 "Hg10 mi
5:30 PM86 °FSunny.10 mph38%30.04 "Hg10 mi
5:00 PM86 °FPassing clouds.10 mph40%30.04 "HgN/A
4:30 PM88 °FSunny.14 mph35%30.04 "Hg10 mi
4:00 PM88 °FSunny.14 mph35%30.04 "Hg10 mi
3:30 PM88 °FPassing clouds.14 mph35%30.04 "HgN/A
3:00 PM88 °FPassing clouds.14 mph35%30.04 "HgN/A
2:30 PM90 °FPassing clouds.15 mph36%30.04 "HgN/A
2:00 PM90 °FSunny.16 mph33%30.07 "Hg10 mi
1:30 PM90 °FSunny.15 mph33%30.07 "Hg10 mi
1:00 PM90 °FPassing clouds.12 mph33%30.07 "HgN/A
12:30 PM90 °FPassing clouds.9 mph33%30.07 "HgN/A
12:00 PM88 °FSunny.8 mph38%30.07 "Hg10 mi
11:30 AM86 °FSunny.7 mph40%30.07 "Hg10 mi
11:00 AM82 °FSunny.6 mph51%30.07 "Hg10 mi
10:30 AM82 °FPassing clouds.6 mph45%30.07 "HgN/A
10:00 AM81 °FSunny.3 mph42%30.07 "Hg10 mi
Weather by CustomWeather, © 2016

See weather overviewHow to use our weather pages